�N����,����,�g�[���i���ԁj���x,�g�[�����x,��g�[���i���ցj���x,����
 2003/01/01, 0:00,16.2,45,-9.9,16.3
 2003/01/01, 0:15,16.3,45,-9.9,16.4
 2003/01/01, 0:30,16.3,45,-9.9,16.4
 2003/01/01, 0:45,16.3,45,-9.9,16.4
 2003/01/01, 1:00,16.2,45,-9.9,16.4
 2003/01/01, 1:15,16.2,45,-9.9,16.4
 2003/01/01, 1:30,16.2,45,-9.9,16.4
 2003/01/01, 1:45,16.2,45,-9.9,16.5
 2003/01/01, 2:00,16.2,45,-9.9,16.5
 2003/01/01, 2:15,16.2,45,-9.9,16.5
 2003/01/01, 2:30,16.1,45,-9.9,16.5
 2003/01/01, 2:45,16.1,45,-9.9,16.5
 2003/01/01, 3:00,16,45,-9.9,16.5
 2003/01/01, 3:15,16.1,45,-9.9,16.5
 2003/01/01, 3:30,16,45,-9.9,16.5
 2003/01/01, 3:45,16,45,-9.9,16.6
 2003/01/01, 4:00,16.1,45,-9.9,16.6
 2003/01/01, 4:15,16,45,-9.9,16.6
 2003/01/01, 4:30,16.1,45,-9.9,16.6
 2003/01/01, 4:45,16.1,45,-9.9,16.6
 2003/01/01, 5:00,15.9,45,-9.9,16.6
 2003/01/01, 5:15,16,45,-9.9,16.6
 2003/01/01, 5:30,16,45,-9.9,16.6
 2003/01/01, 5:45,16,45,-9.9,16.6
 2003/01/01, 6:00,16,45,-9.9,16.6
 2003/01/01, 6:15,15.9,45,-9.9,16.7
 2003/01/01, 6:30,15.9,45,-9.9,16.7
 2003/01/01, 6:45,15.9,45,-9.9,16.7
 2003/01/01, 7:00,15.9,45,-9.9,16.7
 2003/01/01, 7:15,15.9,45,-9.9,16.7
 2003/01/01, 7:30,15.9,45,-9.9,16.7
 2003/01/01, 7:45,15.9,45,-9.9,16.7
 2003/01/01, 8:00,16,45,-9.9,16.7
 2003/01/01, 8:15,16.2,44,-9.9,16.7
 2003/01/01, 8:30,16.2,44,-9.9,16.7
 2003/01/01, 8:45,16.2,44,-9.9,16.7
 2003/01/01, 9:00,16.4,44,-9.9,16.7
 2003/01/01, 9:15,16.3,44,-9.9,16.7
 2003/01/01, 9:30,16.3,44,-9.9,16.7
 2003/01/01, 9:45,16.3,44,-9.9,16.7
 2003/01/01,10:00,16.4,44,-9.9,16.7
 2003/01/01,10:15,16.4,43,-9.9,16.7
 2003/01/01,10:30,16.5,43,-9.9,16.7
 2003/01/01,10:45,16.5,43,-9.9,16.8
 2003/01/01,11:00,16.4,43,-9.9,16.8
 2003/01/01,11:15,16.4,43,-9.9,16.8
 2003/01/01,11:30,16.4,43,-9.9,16.8
 2003/01/01,11:45,16.4,43,-9.9,16.8
 2003/01/01,12:00,16.4,43,-9.9,16.8
 2003/01/01,12:15,16.3,44,-9.9,16.8
 2003/01/01,12:30,16.3,43,-9.9,16.8
 2003/01/01,12:45,16.2,43,-9.9,16.8
 2003/01/01,13:00,16.3,43,-9.9,16.8
 2003/01/01,13:15,16.2,43,-9.9,16.8
 2003/01/01,13:30,16.2,43,-9.9,16.8
 2003/01/01,13:45,16.2,43,-9.9,16.8
 2003/01/01,14:00,16.2,43,-9.9,16.8
 2003/01/01,14:15,16.2,43,-9.9,16.8
 2003/01/01,14:30,16.2,43,-9.9,16.8
 2003/01/01,14:45,16.2,43,-9.9,16.8
 2003/01/01,15:00,16.2,43,-9.9,16.8
 2003/01/01,15:15,16.1,43,-9.9,16.8
 2003/01/01,15:30,16.1,43,-9.9,16.8
 2003/01/01,15:45,16.1,43,-9.9,16.8
 2003/01/01,16:00,16.1,43,-9.9,16.8
 2003/01/01,16:15,16.1,43,-9.9,16.8
 2003/01/01,16:30,16.1,43,-9.9,16.8
 2003/01/01,16:45,16,43,-9.9,16.8
 2003/01/01,17:00,16,43,-9.9,16.8
 2003/01/01,17:15,15.9,43,-9.9,16.8
 2003/01/01,17:30,15.9,43,-9.9,16.8
 2003/01/01,17:45,15.9,43,-9.9,16.8
 2003/01/01,18:00,15.9,43,-9.9,16.8
 2003/01/01,18:15,15.8,43,-9.9,16.8
 2003/01/01,18:30,15.9,42,-9.9,16.8
 2003/01/01,18:45,15.8,42,-9.9,16.8
 2003/01/01,19:00,15.7,41,-9.9,16.8
 2003/01/01,19:15,15.8,41,-9.9,16.8
 2003/01/01,19:30,15.8,40,-9.9,16.8
 2003/01/01,19:45,15.6,40,-9.9,16.8
 2003/01/01,20:00,15.7,39,-9.9,16.8
 2003/01/01,20:15,15.6,40,-9.9,16.7
 2003/01/01,20:30,15.8,38,-9.9,16.7
 2003/01/01,20:45,15.9,38,-9.9,16.8
 2003/01/01,21:00,16.1,38,-9.9,16.7
 2003/01/01,21:15,16,38,-9.9,16.7
 2003/01/01,21:30,16.1,39,-9.9,12.1
 2003/01/01,21:45,16.2,38,-9.9,12.1
 2003/01/01,22:00,16.2,39,-9.9,12.2
 2003/01/01,22:15,16.2,38,-9.9,11
 2003/01/01,22:30,16.2,39,-9.9,11.1
 2003/01/01,22:45,16.2,40,-9.9,11.1
 2003/01/01,23:00,16.2,40,-9.9,11.2
 2003/01/01,23:15,16.1,41,-9.9,11.2
 2003/01/01,23:30,16.1,41,-9.9,11.3
 2003/01/01,23:45,16.1,40,-9.9,11.4
 2003/01/02, 0:00,16,39,-9.9,11.4
 2003/01/02, 0:15,15.9,39,-9.9,11.5
 2003/01/02, 0:30,15.9,40,-9.9,11.5
 2003/01/02, 0:45,15.9,39,-9.9,11.6
 2003/01/02, 1:00,15.9,40,-9.9,11.6
 2003/01/02, 1:15,15.9,40,-9.9,11.7
 2003/01/02, 1:30,15.9,42,-9.9,11.8
 2003/01/02, 1:45,15.9,42,-9.9,11.8
 2003/01/02, 2:00,15.9,43,-9.9,11.9
 2003/01/02, 2:15,15.9,43,-9.9,11.9
 2003/01/02, 2:30,16,42,-9.9,12
 2003/01/02, 2:45,15.9,43,-9.9,12.1
 2003/01/02, 3:00,15.9,43,-9.9,12.1
 2003/01/02, 3:15,15.9,42,-9.9,12.2
 2003/01/02, 3:30,15.9,41,-9.9,12.2
 2003/01/02, 3:45,15.9,42,-9.9,12.3
 2003/01/02, 4:00,15.8,42,-9.9,12.3
 2003/01/02, 4:15,15.9,41,-9.9,12.4
 2003/01/02, 4:30,15.8,41,-9.9,12.4
 2003/01/02, 4:45,15.7,41,-9.9,12.5
 2003/01/02, 5:00,15.6,41,-9.9,12.5
 2003/01/02, 5:15,15.6,41,-9.9,12.6
 2003/01/02, 5:30,15.7,41,-9.9,12.6
 2003/01/02, 5:45,15.6,42,-9.9,12.7
 2003/01/02, 6:00,15.6,42,-9.9,12.7
 2003/01/02, 6:15,15.6,42,-9.9,12.8
 2003/01/02, 6:30,15.6,42,-9.9,12.8
 2003/01/02, 6:45,15.6,42,-9.9,12.9
 2003/01/02, 7:00,15.6,42,-9.9,12.9
 2003/01/02, 7:15,15.6,43,-9.9,13
 2003/01/02, 7:30,15.6,43,-9.9,13
 2003/01/02, 7:45,16.1,43,-9.9,13
 2003/01/02, 8:00,16.4,42,-9.9,13.1
 2003/01/02, 8:15,16.7,42,-9.9,13.1
 2003/01/02, 8:30,16.7,42,-9.9,13.2
 2003/01/02, 8:45,16.6,40,-9.9,13.2
 2003/01/02, 9:00,16.6,39,-9.9,13.2
 2003/01/02, 9:15,16.7,40,-9.9,11.2
 2003/01/02, 9:30,16.6,39,-9.9,11.2
 2003/01/02, 9:45,16.8,40,-9.9,11.2
 2003/01/02,10:00,16.7,40,-9.9,11.3
 2003/01/02,10:15,16.7,40,-9.9,11.3
 2003/01/02,10:30,16.5,40,-9.9,11.4
 2003/01/02,10:45,16.5,38,-9.9,11.5
 2003/01/02,11:00,16.5,39,-9.9,11.5
 2003/01/02,11:15,16.5,39,-9.9,11.6
 2003/01/02,11:30,16.4,40,-9.9,11.6
 2003/01/02,11:45,16.2,39,-9.9,11.7
 2003/01/02,12:00,16.1,39,-9.9,10
 2003/01/02,12:15,16.2,38,-9.9,10.1
 2003/01/02,12:30,16.1,38,-9.9,10.1
 2003/01/02,12:45,16.1,39,-9.9,10.2
 2003/01/02,13:00,16,39,-9.9,10.2
 2003/01/02,13:15,15.4,36,-9.9,10.1
 2003/01/02,13:30,15.6,35,-9.9,10.2
 2003/01/02,13:45,15.6,39,-9.9,10.3
 2003/01/02,14:00,15.8,41,-9.9,10.3
 2003/01/02,14:15,15.8,40,-9.9,10.4
 2003/01/02,14:30,16.2,39,-9.9,10.4
 2003/01/02,14:45,16.8,38,-9.9,10.5
 2003/01/02,15:00,17.3,38,-9.9,10.5
 2003/01/02,15:15,17.8,36,-9.9,10.6
 2003/01/02,15:30,18,37,-9.9,10.7
 2003/01/02,15:45,18.1,37,-9.9,10.7
 2003/01/02,16:00,18.1,37,-9.9,10.8
 2003/01/02,16:15,17.2,39,-9.9,10.9
 2003/01/02,16:30,16.8,39,-9.9,10.9
 2003/01/02,16:45,16.6,40,-9.9,11
 2003/01/02,17:00,16.2,40,-9.9,10.3
 2003/01/02,17:15,16.4,40,-9.9,10.4
 2003/01/02,17:30,16,40,-9.9,10.4
 2003/01/02,17:45,16.3,45,-9.9,10.5
 2003/01/02,18:00,16.4,48,-9.9,10.5
 2003/01/02,18:15,16.4,49,-9.9,10.6
 2003/01/02,18:30,16.3,47,-9.9,10.6
 2003/01/02,18:45,16.3,47,-9.9,10.7
 2003/01/02,19:00,16.3,45,-9.9,10.7
 2003/01/02,19:15,16.2,44,-9.9,10.8
 2003/01/02,19:30,16.1,44,-9.9,10.9
 2003/01/02,19:45,16,44,-9.9,10.9
 2003/01/02,20:00,16,44,-9.9,11
 2003/01/02,20:15,16.1,44,-9.9,10.7
 2003/01/02,20:30,16.1,45,-9.9,10.5
 2003/01/02,20:45,16.1,45,-9.9,10.5
 2003/01/02,21:00,16.1,42,-9.9,10.6
 2003/01/02,21:15,16,42,-9.9,10.6
 2003/01/02,21:30,16.1,41,-9.9,10.7
 2003/01/02,21:45,16.3,42,-9.9,10.7
 2003/01/02,22:00,16.9,42,-9.9,10.8
 2003/01/02,22:15,16.9,43,-9.9,10.8
 2003/01/02,22:30,17.1,43,-9.9,10.9
 2003/01/02,22:45,17.4,45,-9.9,10.5
 2003/01/02,23:00,17.3,45,-9.9,10.5
 2003/01/02,23:15,17.6,45,-9.9,10.6
 2003/01/02,23:30,17.1,45,-9.9,10.6
 2003/01/02,23:45,16.8,46,-9.9,10.7
 2003/01/03, 0:00,16.7,46,-9.9,10.8
 2003/01/03, 0:15,16.6,46,-9.9,10.8
 2003/01/03, 0:30,16.4,46,-9.9,10.9
 2003/01/03, 0:45,16.4,46,-9.9,10.9
 2003/01/03, 1:00,16.3,46,-9.9,11
 2003/01/03, 1:15,16.1,46,-9.9,11
 2003/01/03, 1:30,16.2,46,-9.9,11.1
 2003/01/03, 1:45,16.2,46,-9.9,11.1
 2003/01/03, 2:00,16,47,-9.9,11.2
 2003/01/03, 2:15,15.9,47,-9.9,11.3
 2003/01/03, 2:30,15.9,47,-9.9,11.3
 2003/01/03, 2:45,15.9,47,-9.9,11.4
 2003/01/03, 3:00,15.8,47,-9.9,11.4
 2003/01/03, 3:15,15.7,46,-9.9,11.5
 2003/01/03, 3:30,15.6,46,-9.9,11.5
 2003/01/03, 3:45,15.5,46,-9.9,11.6
 2003/01/03, 4:00,15.5,45,-9.9,11.6
 2003/01/03, 4:15,15.4,45,-9.9,11.7
 2003/01/03, 4:30,15.3,45,-9.9,11.7
 2003/01/03, 4:45,15.1,45,-9.9,11.8
 2003/01/03, 5:00,15.2,44,-9.9,11.8
 2003/01/03, 5:15,15.2,44,-9.9,11.9
 2003/01/03, 5:30,15.2,44,-9.9,11.3
 2003/01/03, 5:45,15.1,44,-9.9,11.4
 2003/01/03, 6:00,15.1,44,-9.9,11.4
 2003/01/03, 6:15,15,44,-9.9,11.5
 2003/01/03, 6:30,15.1,44,-9.9,11.5
 2003/01/03, 6:45,15.1,44,-9.9,10.5
 2003/01/03, 7:00,15.1,43,-9.9,10.7
 2003/01/03, 7:15,15.1,43,-9.9,10.7
 2003/01/03, 7:30,15,43,13.3,10.8
 2003/01/03, 7:45,14.9,42,13.3,10.8
 2003/01/03, 8:00,14.8,42,13.3,10.8
 2003/01/03, 8:15,14.8,41,13.3,10.9
 2003/01/03, 8:30,14.7,40,13.3,11
 2003/01/03, 8:45,14.7,41,13.3,11
 2003/01/03, 9:00,14.6,40,13.3,11.1
 2003/01/03, 9:15,14.5,40,13.3,11.1
 2003/01/03, 9:30,13.6,37,13.3,10.9
 2003/01/03, 9:45,14.8,42,13.3,10.9
 2003/01/03,10:00,14.9,42,13.3,10.9
 2003/01/03,10:15,14.8,41,13.3,10.9
 2003/01/03,10:30,14.8,41,13.3,11
 2003/01/03,10:45,14.7,40,13.3,11
 2003/01/03,11:00,14.6,41,13.3,10.2
 2003/01/03,11:15,15.2,39,13.4,10.2
 2003/01/03,11:30,15.8,39,13.4,10.2
 2003/01/03,11:45,15.7,39,13.4,10.3
 2003/01/03,12:00,16.1,42,13.4,10.3
 2003/01/03,12:15,16.2,48,13.4,10.4
 2003/01/03,12:30,16.7,48,13.4,10.4
 2003/01/03,12:45,17.2,53,13.4,10.5
 2003/01/03,13:00,17.2,55,13.3,10.6
 2003/01/03,13:15,17.5,57,13.4,10.6
 2003/01/03,13:30,17.8,59,13.4,10.7
 2003/01/03,13:45,18.1,59,13.4,10.8
 2003/01/03,14:00,18.3,58,13.3,11
 2003/01/03,14:15,18.4,57,13.4,11
 2003/01/03,14:30,18.5,55,13.4,9.8
 2003/01/03,14:45,18.4,53,13.4,9.8
 2003/01/03,15:00,18.5,52,13.4,9.9
 2003/01/03,15:15,18.7,51,13.4,9.9
 2003/01/03,15:30,18.9,50,13.3,10
 2003/01/03,15:45,18.9,51,13.4,10
 2003/01/03,16:00,19,50,13.4,10.1
 2003/01/03,16:15,19.2,49,13.5,10.3
 2003/01/03,16:30,16.5,51,14.2,10.3
 2003/01/03,16:45,16.3,50,14.1,10.4
 2003/01/03,17:00,16,50,14.1,10.4
 2003/01/03,17:15,15.8,51,14,10.5
 2003/01/03,17:30,15.7,51,14,10.5
 2003/01/03,17:45,16.2,50,13.8,10.1
 2003/01/03,18:00,17.2,49,13.6,10.2
 2003/01/03,18:15,17.3,49,13.6,10.5
 2003/01/03,18:30,17.6,48,13.6,10.5
 2003/01/03,18:45,17.8,48,13.6,10.6
 2003/01/03,19:00,18,48,13.5,10.6
 2003/01/03,19:15,18.1,47,13.5,10.7
 2003/01/03,19:30,18.3,47,13.5,10.7
 2003/01/03,19:45,18.4,47,13.4,10.8
 2003/01/03,20:00,18.4,47,13.4,10.8
 2003/01/03,20:15,18.6,47,13.4,10.9
 2003/01/03,20:30,18.8,47,13.4,10.9
 2003/01/03,20:45,18.8,47,13.4,10.9
 2003/01/03,21:00,19.2,46,13.4,10.9
 2003/01/03,21:15,19.2,45,13.2,11
 2003/01/03,21:30,19.3,44,13.2,11
 2003/01/03,21:45,19.3,44,13.1,11.1
 2003/01/03,22:00,18.5,46,13.2,11.1
 2003/01/03,22:15,18.1,48,13.3,11.2
 2003/01/03,22:30,17.9,49,13.3,11.2
 2003/01/03,22:45,17.7,50,13.3,11.1
 2003/01/03,23:00,17.6,50,13.3,11.1
 2003/01/03,23:15,17.5,51,13.3,10.3
 2003/01/03,23:30,17.3,49,13.3,10.3
 2003/01/03,23:45,17.3,49,13.3,10.3
 2003/01/04, 0:00,17.2,49,13.2,10.4
 2003/01/04, 0:15,17,49,13.3,10.4
 2003/01/04, 0:30,17,48,13.2,10.5
 2003/01/04, 0:45,16.8,48,13.3,10.5
 2003/01/04, 1:00,16.7,48,13.3,10.6
 2003/01/04, 1:15,16.7,48,13.2,10.7
 2003/01/04, 1:30,16.7,47,13.1,10.7
 2003/01/04, 1:45,16.6,47,13.1,10.8
 2003/01/04, 2:00,16.5,47,13.1,10.8
 2003/01/04, 2:15,16.5,47,13.1,10.9
 2003/01/04, 2:30,16.4,47,13.1,11
 2003/01/04, 2:45,16.3,47,13.1,11
 2003/01/04, 3:00,16.3,47,13,11.1
 2003/01/04, 3:15,16.2,47,13,11.1
 2003/01/04, 3:30,16.2,47,12.9,11.2
 2003/01/04, 3:45,16.1,47,12.9,11.3
 2003/01/04, 4:00,16.1,46,12.8,11.3
 2003/01/04, 4:15,16,45,12.9,11.4
 2003/01/04, 4:30,16,46,12.9,11.4
 2003/01/04, 4:45,15.9,46,12.9,11.4
 2003/01/04, 5:00,15.9,46,13,11.5
 2003/01/04, 5:15,15.9,46,12.9,11.5
 2003/01/04, 5:30,15.8,45,13,11.6
 2003/01/04, 5:45,15.9,44,13,11.6
 2003/01/04, 6:00,15.9,44,13,11.6
 2003/01/04, 6:15,15.8,44,13,11.7
 2003/01/04, 6:30,15.8,45,13,11.7
 2003/01/04, 6:45,15.8,45,13,11.8
 2003/01/04, 7:00,15.8,44,13,11.8
 2003/01/04, 7:15,15.8,44,13.1,11.9
 2003/01/04, 7:30,15.7,44,12.9,11.9
 2003/01/04, 7:45,15.8,43,12.9,12
 2003/01/04, 8:00,15.8,43,12.9,12
 2003/01/04, 8:15,15.8,43,12.9,12
 2003/01/04, 8:30,16.1,42,12.8,12.1
 2003/01/04, 8:45,16.6,38,12.9,10.9
 2003/01/04, 9:00,16.9,38,12.9,10.9
 2003/01/04, 9:15,16.6,40,12.8,10.9
 2003/01/04, 9:30,16.4,40,12.8,11
 2003/01/04, 9:45,16.5,41,12.8,11
 2003/01/04,10:00,16.4,41,12.9,11
 2003/01/04,10:15,16.4,40,12.9,11.1
 2003/01/04,10:30,16.2,40,12.9,11.1
 2003/01/04,10:45,16.3,41,12.9,11.2
 2003/01/04,11:00,16.3,41,12.9,11.2
 2003/01/04,11:15,16.2,40,12.8,11.3
 2003/01/04,11:30,16.2,39,12.8,11.3
 2003/01/04,11:45,16,39,12.8,11.4
 2003/01/04,12:00,16,39,12.8,11.5
 2003/01/04,12:15,15.9,38,12.9,11.5
 2003/01/04,12:30,15.8,38,12.9,11.6
 2003/01/04,12:45,15.8,38,12.8,11.6
 2003/01/04,13:00,15.8,38,12.8,11.7
 2003/01/04,13:15,15.6,38,12.8,9.9
 2003/01/04,13:30,15.6,39,12.8,9.9
 2003/01/04,13:45,15.8,39,12.8,10
 2003/01/04,14:00,15.8,41,12.8,10
 2003/01/04,14:15,15.8,40,12.8,10.1
 2003/01/04,14:30,15.9,40,12.7,10.2
 2003/01/04,14:45,15.9,40,12.8,10.2
 2003/01/04,15:00,15.4,35,12.7,10.5
 2003/01/04,15:15,15.7,37,12.8,10.5
 2003/01/04,15:30,15.8,38,12.9,10.5
 2003/01/04,15:45,15.7,38,13,10.6
 2003/01/04,16:00,15.6,37,12.8,10.6
 2003/01/04,16:15,15.4,37,12.7,10.7
 2003/01/04,16:30,15.2,37,12.7,10.7
 2003/01/04,16:45,15,38,12.7,10.7
 2003/01/04,17:00,12.9,38,12.7,10.7
 2003/01/04,17:15,14.6,40,12.7,10.7
 2003/01/04,17:30,14.6,39,12.6,10.8
 2003/01/04,17:45,14.6,39,12.6,10.8
 2003/01/04,18:00,14.5,41,12.8,10.9
 2003/01/04,18:15,14.5,42,12.8,10.9
 2003/01/04,18:30,14.5,42,12.7,11
 2003/01/04,18:45,14.3,42,12.6,11
 2003/01/04,19:00,14.4,43,12.7,11.1
 2003/01/04,19:15,14.4,43,12.7,11.1
 2003/01/04,19:30,14.3,42,12.6,11.2
 2003/01/04,19:45,14.3,42,12.5,11.2
 2003/01/04,20:00,14.2,42,12.5,11.3
 2003/01/04,20:15,14.3,42,12.6,11.3
 2003/01/04,20:30,14.3,42,12.6,11.4
 2003/01/04,20:45,14.1,42,12.5,11.4
 2003/01/04,21:00,14.2,41,12.4,11.5
 2003/01/04,21:15,14.2,40,12.3,11.5
 2003/01/04,21:30,14.1,40,12.3,11.6
 2003/01/04,21:45,14,40,12.3,11.6
 2003/01/04,22:00,14,39,12.2,11.7
 2003/01/04,22:15,14.5,37,12.1,10.2
 2003/01/04,22:30,15.3,37,12.1,10.1
 2003/01/04,22:45,15.4,36,12.2,10.2
 2003/01/04,23:00,15.6,36,12.2,10.2
 2003/01/04,23:15,15.8,36,12.3,10.3
 2003/01/04,23:30,15.9,35,12.2,10.3
 2003/01/04,23:45,16.1,35,12.3,10.4
 2003/01/05, 0:00,16.1,36,12.3,10.5
 2003/01/05, 0:15,16.2,35,12.2,10.5
 2003/01/05, 0:30,15.7,36,12.3,10.6
 2003/01/05, 0:45,15.7,35,12.2,10.6
 2003/01/05, 1:00,15.6,35,12.1,10.7
 2003/01/05, 1:15,15.4,35,12.1,10.8
 2003/01/05, 1:30,15.4,35,12.1,10.8
 2003/01/05, 1:45,15.3,36,12.1,10.9
 2003/01/05, 2:00,15.2,35,12.1,10.9
 2003/01/05, 2:15,15.1,36,12.1,11
 2003/01/05, 2:30,15.1,36,12.1,11
 2003/01/05, 2:45,15.3,36,12.1,10.7
 2003/01/05, 3:00,15.2,38,12.1,10.7
 2003/01/05, 3:15,15.1,38,12.1,10.7
 2003/01/05, 3:30,15.1,39,12.2,10.8
 2003/01/05, 3:45,15,39,12.2,10.8
 2003/01/05, 4:00,15.1,38,12.2,10.9
 2003/01/05, 4:15,15,37,12.1,10.9
 2003/01/05, 4:30,14.9,37,12.1,11
 2003/01/05, 4:45,14.9,36,12.1,11
 2003/01/05, 5:00,14.9,36,12.1,11.1
 2003/01/05, 5:15,14.9,37,12.1,11.1
 2003/01/05, 5:30,14.8,38,12.1,10
 2003/01/05, 5:45,14.9,38,12.1,10
 2003/01/05, 6:00,14.7,38,12.1,10.1
 2003/01/05, 6:15,14.8,38,12.1,10.1
 2003/01/05, 6:30,14.8,38,12,10.2
 2003/01/05, 6:45,14.9,38,12.1,10.2
 2003/01/05, 7:00,14.9,39,12.1,10.3
 2003/01/05, 7:15,14.9,39,12.1,10.3
 2003/01/05, 7:30,15.2,40,12.2,10.4
 2003/01/05, 7:45,15.8,34,12.1,10.5
 2003/01/05, 8:00,16.2,32,12.1,10.5
 2003/01/05, 8:15,16.6,33,12,9.6
 2003/01/05, 8:30,16.6,32,11.8,9.7
 2003/01/05, 8:45,16.5,31,11.9,9.7
 2003/01/05, 9:00,16.3,35,12,9.7
 2003/01/05, 9:15,15.6,36,12,9.3
 2003/01/05, 9:30,15.5,37,12.2,9.3
 2003/01/05, 9:45,15.4,39,12.4,9.4
 2003/01/05,10:00,15.1,40,12.4,9.4
 2003/01/05,10:15,15,40,12.3,9.4
 2003/01/05,10:30,14.7,40,12.2,9.5
 2003/01/05,10:45,14.7,39,12,9.6
 2003/01/05,11:00,14.6,39,12.1,9.6
 2003/01/05,11:15,14.6,39,12.1,9.7
 2003/01/05,11:30,14.5,39,12,9.7
 2003/01/05,11:45,14.4,38,12,9.8
 2003/01/05,12:00,14.4,38,12.1,9.8
 2003/01/05,12:15,14.3,38,12.2,9.9
 2003/01/05,12:30,14.3,38,12.3,9.9
 2003/01/05,12:45,14.3,38,12.1,10
 2003/01/05,13:00,14.3,38,12.1,10.1
 2003/01/05,13:15,14.3,38,12.1,10.1
 2003/01/05,13:30,14.1,38,12.1,10.2
 2003/01/05,13:45,14.2,38,12.2,10.3
 2003/01/05,14:00,14.2,38,12.1,10.3
 2003/01/05,14:15,14.1,37,11.9,10.4
 2003/01/05,14:30,14.2,37,12.3,10.4
 2003/01/05,14:45,14.7,34,12.1,10.5
 2003/01/05,15:00,14.9,33,12,10.6
 2003/01/05,15:15,14.9,34,12,9.9
 2003/01/05,15:30,15.1,33,12.1,10
 2003/01/05,15:45,15.1,33,12.2,10
 2003/01/05,16:00,14.9,33,12.4,10.1
 2003/01/05,16:15,15,33,12.3,10.1
 2003/01/05,16:30,15.2,35,12.2,10.1
 2003/01/05,16:45,15.3,36,12,10.1
 2003/01/05,17:00,15.2,36,12,10.2
 2003/01/05,17:15,15.5,35,12,10.2
 2003/01/05,17:30,15.9,38,12,10.3
 2003/01/05,17:45,16.2,37,12,10.3
 2003/01/05,18:00,16.3,36,11.9,10.4
 2003/01/05,18:15,16.3,34,11.8,10.4
 2003/01/05,18:30,16.4,34,11.9,10.3
 2003/01/05,18:45,16.5,34,11.9,10.3
 2003/01/05,19:00,16.5,34,11.8,10.3
 2003/01/05,19:15,16.6,33,11.8,10.4
 2003/01/05,19:30,16.5,32,11.8,10.4
 2003/01/05,19:45,16.6,33,11.7,10.5
 2003/01/05,20:00,16.5,31,11.8,10.5
 2003/01/05,20:15,16.4,31,11.7,10.6
 2003/01/05,20:30,16.4,32,11.7,10.4
 2003/01/05,20:45,16.8,33,11.9,10.2
 2003/01/05,21:00,16.8,33,11.8,10.2
 2003/01/05,21:15,16.8,33,11.9,10.3
 2003/01/05,21:30,16.8,33,11.9,10.3
 2003/01/05,21:45,16.9,33,11.8,10.4
 2003/01/05,22:00,17,34,11.8,10.4
 2003/01/05,22:15,17,34,11.9,10.5
 2003/01/05,22:30,16.8,34,12,10.5
 2003/01/05,22:45,16.5,35,11.9,10.6
 2003/01/05,23:00,16.4,36,11.7,10.6
 2003/01/05,23:15,16.2,35,12,10.7
 2003/01/05,23:30,16.2,34,12,10.7
 2003/01/05,23:45,16,33,11.8,10.8
 2003/01/06, 0:00,16.1,33,11.6,10.8
 2003/01/06, 0:15,15.8,33,11.7,10.9
 2003/01/06, 0:30,15.7,35,11.7,10.9
 2003/01/06, 0:45,15.7,36,11.7,11
 2003/01/06, 1:00,15.6,36,11.7,11
 2003/01/06, 1:15,15.6,37,11.8,11.1
 2003/01/06, 1:30,15.4,37,11.7,11.1
 2003/01/06, 1:45,15.5,37,11.7,11.2
 2003/01/06, 2:00,15.5,36,11.7,11.2
 2003/01/06, 2:15,15.4,37,11.7,11.3
 2003/01/06, 2:30,15.4,37,11.7,11.3
 2003/01/06, 2:45,15.3,38,11.7,11.4
 2003/01/06, 3:00,15.3,38,11.7,11.4
 2003/01/06, 3:15,15.4,38,11.7,11.5
 2003/01/06, 3:30,15.3,39,11.6,11.5
 2003/01/06, 3:45,15.3,39,11.7,11.6
 2003/01/06, 4:00,15.2,40,11.8,11.6
 2003/01/06, 4:15,15.2,40,11.9,11.7
 2003/01/06, 4:30,15.2,40,12,11.7
 2003/01/06, 4:45,15.1,41,12,11.7
 2003/01/06, 5:00,15.1,41,12,11.8
 2003/01/06, 5:15,15.1,41,12,11.8
 2003/01/06, 5:30,15.2,41,12,11.9
 2003/01/06, 5:45,15.2,41,11.9,11.9
 2003/01/06, 6:00,15.2,40,11.8,12
 2003/01/06, 6:15,15.2,40,11.8,12
 2003/01/06, 6:30,15.1,40,11.6,12
 2003/01/06, 6:45,15.1,40,11.7,12.1
 2003/01/06, 7:00,14.9,42,12.1,10.4
 2003/01/06, 7:15,15,43,12.3,10
 2003/01/06, 7:30,14.9,43,12.2,9.4
 2003/01/06, 7:45,14.2,41,12.1,9.4
 2003/01/06, 8:00,14.5,40,12.1,9.4
 2003/01/06, 8:15,14.9,41,12,9.5
 2003/01/06, 8:30,15.3,40,12.1,9.5
 2003/01/06, 8:45,15.5,40,12.4,9.6
 2003/01/06, 9:00,15.5,40,12.6,9.6
 2003/01/06, 9:15,15.5,41,12.6,9.7
 2003/01/06, 9:30,15.5,41,12.6,9.7
 2003/01/06, 9:45,15.4,41,12.6,9.8
 2003/01/06,10:00,15.3,41,12.7,9.8
 2003/01/06,10:15,15.1,42,12.5,9.9
 2003/01/06,10:30,14.9,42,12.5,10
 2003/01/06,10:45,14.7,42,12.6,10
 2003/01/06,11:00,14.8,42,12.4,10.1
 2003/01/06,11:15,14.8,41,12.5,10.2
 2003/01/06,11:30,14.7,41,12.6,10.2
 2003/01/06,11:45,14.5,41,12.7,10.3
 2003/01/06,12:00,14.6,41,12.7,10.4
 2003/01/06,12:15,14.6,41,12.6,10.4
 2003/01/06,12:30,14.6,41,12.6,10.5
 2003/01/06,12:45,14.6,40,12.6,10.6
 2003/01/06,13:00,14.6,40,12.8,10.6
 2003/01/06,13:15,14.6,40,12.8,10.7
 2003/01/06,13:30,14.6,40,12.9,10.7
 2003/01/06,13:45,14.6,40,13,10.8
 2003/01/06,14:00,14.6,40,13,10.9
 2003/01/06,14:15,14.6,40,13.1,10.9
 2003/01/06,14:30,14.7,40,13.1,11
 2003/01/06,14:45,14.7,40,13,11
 2003/01/06,15:00,14.7,40,13,11.1
 2003/01/06,15:15,14.7,40,13,11.2
 2003/01/06,15:30,14.7,41,13.2,11.2
 2003/01/06,15:45,14.7,41,13.4,11.3
 2003/01/06,16:00,14.8,40,13.3,11.3
 2003/01/06,16:15,14.7,41,13.4,11.4
 2003/01/06,16:30,14.7,41,13.2,11.4
 2003/01/06,16:45,14.7,41,13.1,11.5
 2003/01/06,17:00,14.6,41,13.1,11.6
 2003/01/06,17:15,14.6,41,13.1,11.6
 2003/01/06,17:30,14.6,41,13,11.7
 2003/01/06,17:45,14.6,41,13,11.7
 2003/01/06,18:00,14.6,41,13,11.8
 2003/01/06,18:15,14.6,42,13,11.8
 2003/01/06,18:30,14.5,42,13,11.9
 2003/01/06,18:45,14.5,42,13,11.9
 2003/01/06,19:00,14.5,42,12.9,12
 2003/01/06,19:15,14.5,42,12.9,12
 2003/01/06,19:30,14.6,42,13,12.1
 2003/01/06,19:45,14.5,42,13,12.1
 2003/01/06,20:00,14.5,42,13,12.1
 2003/01/06,20:15,14.5,42,12.9,12.2
 2003/01/06,20:30,14.5,42,12.9,12.2
 2003/01/06,20:45,14.5,42,13.1,12.3
 2003/01/06,21:00,14.5,42,13.1,12.3
 2003/01/06,21:15,14.5,42,13.1,12.4
 2003/01/06,21:30,14.5,43,13,12.4
 2003/01/06,21:45,14.5,43,13,12.5
 2003/01/06,22:00,14.5,42,13.1,12.5
 2003/01/06,22:15,14.5,42,13.1,12.5
 2003/01/06,22:30,12.8,42,13.1,12.6
 2003/01/06,22:45,14.8,41,13,10.1
 2003/01/06,23:00,15.2,42,13,10.1
 2003/01/06,23:15,15.3,42,13.1,10.1
 2003/01/06,23:30,15.4,43,13,10.2
 2003/01/06,23:45,15.3,43,13.1,10.2
 2003/01/07, 0:00,15.3,43,13,10.3
 2003/01/07, 0:15,15.3,43,13,10.4
 2003/01/07, 0:30,15.3,43,12.9,10.4
 2003/01/07, 0:45,15.3,43,12.9,10.5
 2003/01/07, 1:00,15.3,43,12.8,10.6
 2003/01/07, 1:15,15.2,44,12.8,10.6
 2003/01/07, 1:30,15.3,44,12.8,10.7
 2003/01/07, 1:45,15.3,44,12.9,10.7
 2003/01/07, 2:00,15.3,44,12.9,10.8
 2003/01/07, 2:15,15.3,44,12.8,10.9
 2003/01/07, 2:30,15.3,44,12.8,10.9
 2003/01/07, 2:45,15.2,45,12.8,11
 2003/01/07, 3:00,15.3,44,12.8,11
 2003/01/07, 3:15,15.3,45,12.8,11.1
 2003/01/07, 3:30,15.3,45,12.8,11.2
 2003/01/07, 3:45,15.2,45,12.9,11.2
 2003/01/07, 4:00,15.2,45,12.9,11.3
 2003/01/07, 4:15,15.2,45,12.9,11.3
 2003/01/07, 4:30,15.3,45,12.9,11.4
 2003/01/07, 4:45,15.1,46,12.9,11.5
 2003/01/07, 5:00,15.2,45,12.9,11.5
 2003/01/07, 5:15,15.2,45,12.9,11.6
 2003/01/07, 5:30,15.2,45,12.9,11.6
 2003/01/07, 5:45,15.2,45,12.9,11.7
 2003/01/07, 6:00,15.2,45,12.9,11.7
 2003/01/07, 6:15,15.1,46,12.9,11.8
 2003/01/07, 6:30,15.2,45,12.9,11.8
 2003/01/07, 6:45,15.3,46,13,8.4
 2003/01/07, 7:00,15.5,46,12.9,8.5
 2003/01/07, 7:15,15.5,47,13,8.9
 2003/01/07, 7:30,15.3,46,13.2,9
 2003/01/07, 7:45,14.5,44,13.1,9
 2003/01/07, 8:00,15.1,42,13,9
 2003/01/07, 8:15,15.1,41,12.9,9.1
 2003/01/07, 8:30,15,39,12.8,9.1
 2003/01/07, 8:45,15,40,12.9,9.2
 2003/01/07, 9:00,14.9,42,12.9,9.3
 2003/01/07, 9:15,15.2,42,13.1,9.3
 2003/01/07, 9:30,15.4,43,13.2,9.4
 2003/01/07, 9:45,15.6,43,13.2,9.4
 2003/01/07,10:00,15.6,43,13.3,9.5
 2003/01/07,10:15,15.6,43,13.3,9.6
 2003/01/07,10:30,15.6,43,13.3,9.6
 2003/01/07,10:45,15.5,42,13.3,9.7
 2003/01/07,11:00,15.5,41,13.3,9.8
 2003/01/07,11:15,15.5,42,13.3,9.8
 2003/01/07,11:30,15.5,42,13.4,9.9
 2003/01/07,11:45,15.4,41,13.3,10
 2003/01/07,12:00,15.5,41,13.4,10
 2003/01/07,12:15,15.5,42,13.4,10.1
 2003/01/07,12:30,15.5,41,13.4,10.2
 2003/01/07,12:45,15.5,41,13.4,10.2
 2003/01/07,13:00,15.5,41,13.5,10.3
 2003/01/07,13:15,15.4,41,13.5,10.4
 2003/01/07,13:30,15.5,41,13.6,10.5
 2003/01/07,13:45,15.5,41,13.6,10.6
 2003/01/07,14:00,15.5,41,13.6,10.6
 2003/01/07,14:15,15.5,41,13.6,10.7
 2003/01/07,14:30,15.5,41,13.6,10.8
 2003/01/07,14:45,15.5,41,13.6,10.8
 2003/01/07,15:00,15.5,40,13.7,10.9
 2003/01/07,15:15,15.5,41,13.7,11
 2003/01/07,15:30,15.5,41,13.7,11
 2003/01/07,15:45,15.5,41,13.7,11.1
 2003/01/07,16:00,15.5,42,13.8,11.2
 2003/01/07,16:15,15.5,42,13.8,11.2
 2003/01/07,16:30,15.4,41,13.8,11.3
 2003/01/07,16:45,15.5,40,13.8,11.3
 2003/01/07,17:00,15.4,40,13.7,11.4
 2003/01/07,17:15,15.4,40,13.6,11.5
 2003/01/07,17:30,15.4,41,13.6,11.5
 2003/01/07,17:45,15.4,40,13.6,11.6
 2003/01/07,18:00,15.4,41,13.5,11.6
 2003/01/07,18:15,15.4,41,13.5,11.7
 2003/01/07,18:30,15.4,41,13.5,11.8
 2003/01/07,18:45,15.3,41,13.4,11.8
 2003/01/07,19:00,15.3,41,13.4,11.9
 2003/01/07,19:15,15.3,42,13.4,11.9
 2003/01/07,19:30,15.3,43,13.4,12
 2003/01/07,19:45,15.2,42,13.4,12
 2003/01/07,20:00,15.2,43,13.4,12.1